This is the latest recevied weather packets stored in our database for station/object K6CQU-13. If no packets are shown the sender has not sent any weather packets the latest 10 day(s).
| Time | Temp. | Humidity | Pressure | Rain* | Wind** | Luminosity | Snow |
|---|---|---|---|---|---|---|---|
| 1787934617 | 22.22° C | 66% | 1014 hPa | 0 mm | - | 151 W/m² | - |
| 1787934317 | 22.22° C | 68% | 1014 hPa | 0 mm | - | 141 W/m² | - |
| 1787934017 | 22.22° C | 68% | 1013.9 hPa | 0 mm | - | 136 W/m² | - |
| 1787933717 | 21.67° C | 68% | 1013.9 hPa | 0 mm | - | 128 W/m² | - |
| 1787933417 | 21.67° C | 67% | 1013.9 hPa | 0 mm | - | 124 W/m² | - |
| 1787933117 | 21.67° C | 67% | 1013.9 hPa | 0 mm | - | 114 W/m² | - |
| 1787932817 | 21.67° C | 68% | 1013.9 hPa | 0 mm | - | 109 W/m² | - |
| 1787932517 | 21.67° C | 68% | 1013.9 hPa | 0 mm | - | 108 W/m² | - |
| 1787932217 | 21.11° C | 68% | 1013.9 hPa | 0 mm | - | 105 W/m² | - |
| 1787931917 | 21.11° C | 69% | 1013.9 hPa | 0 mm | - | 99 W/m² | - |
| 1787931617 | 21.11° C | 69% | 1014 hPa | 0 mm | - | 92 W/m² | - |
| 1787931317 | 21.11° C | 70% | 1014.1 hPa | 0 mm | - | 79 W/m² | - |
| 1787931017 | 21.11° C | 69% | 1014.1 hPa | 0 mm | - | 67 W/m² | - |
| 1787930717 | 20.56° C | 70% | 1013.9 hPa | 0 mm | - | 57 W/m² | - |
| 1787930417 | 20.56° C | 70% | 1013.8 hPa | 0 mm | - | 48 W/m² | - |
| 1787930117 | 20.56° C | 70% | 1013.7 hPa | 0 mm | - | 36 W/m² | - |
| 1787929817 | 20.56° C | 70% | 1013.6 hPa | 0 mm | - | 29 W/m² | - |
| 1787929517 | 20.56° C | 69% | 1013.4 hPa | 0 mm | - | 28 W/m² | - |
| 1787929216 | 20.56° C | 68% | 1013.2 hPa | 0 mm | - | 28 W/m² | - |
| 1787928916 | 20.56° C | 68% | 1013 hPa | 0 mm | - | 25 W/m² | - |
| 1787928617 | 20.56° C | 68% | 1012.9 hPa | 0 mm | - | 20 W/m² | - |
| 1787928317 | 20.56° C | 68% | 1012.8 hPa | 0 mm | - | 17 W/m² | - |
| 1787928016 | 20° C | 68% | 1012.8 hPa | 0 mm | - | 14 W/m² | - |
| 1787927716 | 20° C | 67% | 1012.6 hPa | 0 mm | - | 13 W/m² | - |
| 1787927416 | 20° C | 67% | 1012.5 hPa | 0 mm | - | 14 W/m² | - |
* Rain latest hour (hover to see other rain measurements)
** Current wind speed in m/s (hover to see current wind gust speed)